SL-8 R/B, 20509

Orbit data source: Space-Track

SL-8 R/B, 20509 is space debris in LEO originally from a launch on Tue, 27 Feb 1990 UTC launched from the Plesetsk Missile And Space Complex (PKMTR). Debris objects in space refer to the collection of defunct objects orbiting the Earth. Examples of debris include non-operational satellites, rocket bodies, and fragments generated from explosions, collisions, or faulty payload assembly.

Loading next visibility...
Identifier
20509, 1990-017B
Orbit
LEO
Country
Flag of CISCIS
Related business
Manufacturer
Polyot
Mission
Spacecraft
Bus & Motor
S3, Unknown motor
Mass
1,434 kg wet, 1,434 kg dry
Launch date (UTC)
1990-02-27 (36 years ago)
Launch vehicle
Unknown
Launch site
Plesetsk Missile And Space Complex (PKMTR)
Object type
Payload
Rocket body
Debris
Shape & HBR
Cyl, 3.3 m
Radar Cross Section
14.646 m², Large (>1 m²)

Expand to show TLE details & history
Last TLE update: 2 days ago

TLE from 2 days ago
0 SL-8 R/B
1 20509U 90017B   26171.40150520  .00000027  00000-0  12603-4 0  9992
2 20509  82.9533  48.6629 0042354 333.3482  26.5497 13.75897379822371
Epoch: 2026-06-20T09:38Z
TLE epoch observation values (Epoch: 2026-06-20T09:38:10.049Z)
Latitude
-0°
Longitude
-4.49563°
Altitude
953.524 km
Speed
7.389 km/s
True Right ascension
03h 14m 39s
True Declination
0° 00' 00"
Sunlit
Object was in daylight at epoch
Visualization orbit readout
Latitude
Unknown
Longitude
Unknown
Altitude
Unknown
Speed
Unknown
Apparent Right ascension
Unknown
Apparent Declination
Unknown
Sunlit
N/A
Visualization observer readout
Local Sidereal Time
23:09:12
Azimuth
Unknown
Elevation
Unknown
Doppler factor
Unknown
Orbital elements
Apogee altitude
1,006.768 km
Perigee altitude
944.475 km
Semi-major axis
7,353.758 km
Eccentricity
0.00424
Inclination
82.9533°
RAAN
48.6629°
Arg. of periapsis
333.3482°
True anomaly
26.76767°
Mean anomaly
26.5497°
Eccentric anomaly
26.65858°
Mean motion
3.44175 °/min
Orbital period
104.6 mins
BSTAR
0.000012603
Loading maneuver chart data...
Computing Atmospheric mass density...
Loading historical data...
Loading historical data...
Loading historical data...
Loading historical data...
Loading historical data...
Loading historical data...
Loading historical data...
Other satellites on launch #17 in the year 1990 (1990-02-27 UTC)

Documentation

Showing up to 5 results
|